Location: Kikino
(54.4440°N, 112.0940°W)
Time: 19:17:07
(UTC+00:00)

A-11 Canister half - Pass Details

Date: 26 May 2024
Orbit: 1525 x 1683 km, 47.3° (Epoch: 12 June)

Event Time Altitude Azimuth Distance (km) Brightness Sun altitude
Rises 01:32:42 0° 172° (S) 4,665 11.3 16.1°
Reaches altitude 10° 01:38:25 10° 145° (SE) 3,704 10.6 15.3°
Maximum altitude 01:41:30 12° 125° (SE) 3,559 10.4 14.8°
Drops below altitude 10° 01:44:36 10° 105° (ESE) 3,738 10.5 14.4°
Sets 01:50:24 0° 78° (ENE) 4,762 11.1 13.6°
